{"data":{"norad_id":69508,"epoch":"2026-09-19T22:32:53.371104Z","epoch_age_seconds":73846,"freshness":"FRESH","line1":"1 69508U 26133A   26262.93950661  .00001723  00000+0  62113-4 0  9999","line2":"2 69508  53.1555 232.6645 0001189  94.8854 265.2284 15.34397363 15402","mean_motion":15.34397363,"eccentricity":0.0001189,"inclination_deg":53.1555,"raan_deg":232.6645,"arg_perigee_deg":94.8854,"mean_anomaly_deg":265.2284,"bstar":6.2113e-5,"rev_number":1540,"period_min":93.847919367155,"perigee_km":461.89770110158,"apogee_km":463.52445477452,"semimajor_km":6840.8480779381,"source":"CELESTRAK","updated_at":"2026-09-20T09:00:44.210333Z"}}